Regional Weather Roundup
Issued by NWS

Home | Current Version | Previous Version | Text Only | Print | Product List | Glossary Off
Versions: 1 2 3 4 5 6 7 8 9 10 11 12 13 14 15 16 17 18 19 20 21 22 23 24 25 26 27 28 29 30 31 32 33 34 35 36 37 38 39 40 41 42 43 44 45 46 47 48 49 50

000
ASUS43 KFSD 301510
RWRSD

WEATHER ROUNDUP FOR SOUTH DAKOTA
NATIONAL WEATHER SERVICE SIOUX FALLS SD
1000 AM CDT TUE SEP 30 2014

NOTE: "FAIR" INDICATES FEW OR NO CLOUDS BELOW 12,000 FEET WITH NO
SIGNIFICANT WEATHER AND/OR OBSTRUCTIONS TO VISIBILITY.


SDZ001>005-009-010-012>017-301600-
NORTHWEST AND NORTH CENTRAL SOUTH DAKOTA

CITY           SKY/WX    TMP DP  RH WIND       PRES   REMARKS
BUFFALO          N/A     54  53  97 NE15      29.51F
FAITH            N/A     56  55  97 E20       29.48F
MOBRIDGE       CLOUDY    55  52  89 E21G36    29.59F
$$

SDZ012>016-024>037-041>051-057-063-072>074-301600-
SOUTHWEST AND SOUTH CENTRAL SOUTH DAKOTA

CITY           SKY/WX    TMP DP  RH WIND       PRES   REMARKS
RAPID CTY ARPT CLOUDY    54  50  86 N8        29.43S
PIERRE         CLOUDY    62  58  86 SE28G37   29.51F
CUSTER         RAIN      47  44  90 W10       29.54R FOG
ELLSWORTH AFB  PTSUNNY   53  53 100 N8        29.44
PHILIP         CLOUDY    56  50  80 SE22G30   29.37F
PINE RIDGE     LGT RAIN  53  51  93 SW24G32   29.50R
WINNER         FAIR      65  49  56 S22G31    29.62S
$$

SDZ004>011-016>023-039-040-301600-
NORTHEAST SOUTH DAKOTA

CITY           SKY/WX    TMP DP  RH WIND       PRES   REMARKS
ABERDEEN       CLOUDY    56  50  80 SE12      29.74F
WATERTOWN      CLOUDY    49  46  90 SE14G24   29.81F
$$

SDZ017-020-022-023-036>040-048>070-301600-
SOUTHEAST SOUTH DAKOTA

CITY           SKY/WX    TMP DP  RH WIND       PRES   REMARKS
SIOUX FALLS    CLOUDY    57  52  83 SE16G26   29.84S
HURON          LGT RAIN  57  54  89 SE14G26   29.70F
CHAMBERLAIN    CLOUDY    63  60  91 SE21G30   29.62F
MITCHELL       RAIN      57  56  96 SE22      29.73F FOG
YANKTON        CLOUDY    59  57  94 E10       29.78F
$$

ABBREVIATIONS USED IN REMARKS
   TC - TEMPERATURE IN CELSIUS
  WCI - WIND CHILL INDEX
   HX - HEAT INDEX
  VSB - VISIBILITY



USA.gov is the U.S. government's official web portal to all federal, state and local government web resources and services.